Time,TemperatureF,DewpointF,PressureIn,WindDirection,WindDirectionDegrees,WindSpeedMPH,WindSpeedGustMPH,Humidity,HourlyPrecipIn,Conditions,Clouds,dailyrainin,SoftwareType,DateUTC
2013-08-11 00:00:00,67.3,53.4,30.14,NW,323,0.0,0.0,61,0.00,,SKC,0.00,VWS V14.01,2013-08-11 05:00:00,
2013-08-11 00:06:00,67.3,53.4,30.14,NW,323,0.0,0.0,61,0.00,,SKC,0.00,VWS V14.01,2013-08-11 05:06:00,
2013-08-11 00:11:00,67.3,53.4,30.14,NW,323,0.0,0.0,61,0.00,,SKC,0.00,VWS V14.01,2013-08-11 05:11:00,
2013-08-11 00:16:00,67.1,53.7,30.14,NW,323,0.0,0.0,62,0.00,,SKC,0.00,VWS V14.01,2013-08-11 05:16:00,
2013-08-11 00:21:00,67.1,53.7,30.14,NW,323,0.0,0.0,62,0.00,,SKC,0.00,VWS V14.01,2013-08-11 05:21:00,
2013-08-11 00:27:00,67.1,54.1,30.14,NW,323,0.0,0.0,63,0.00,,SKC,0.00,VWS V14.01,2013-08-11 05:27:00,
2013-08-11 00:32:00,66.9,53.5,30.14,NW,323,0.0,0.0,62,0.00,,SKC,0.00,VWS V14.01,2013-08-11 05:32:00,
2013-08-11 00:38:00,66.9,53.9,30.14,NW,323,0.0,0.0,63,0.00,,SKC,0.00,VWS V14.01,2013-08-11 05:38:00,
2013-08-11 00:43:00,66.9,54.4,30.14,NW,323,0.0,0.0,64,0.00,,SKC,0.00,VWS V14.01,2013-08-11 05:43:00,
2013-08-11 00:48:00,66.9,54.4,30.14,NW,323,0.0,0.0,64,0.00,,SKC,0.00,VWS V14.01,2013-08-11 05:48:00,
2013-08-11 00:53:00,66.9,54.4,30.14,NW,323,0.0,0.0,64,0.00,,SKC,0.00,VWS V14.01,2013-08-11 05:53:00,
2013-08-11 01:01:00,66.6,54.4,30.14,NW,323,0.0,0.0,65,0.00,,SKC,0.00,VWS V14.01,2013-08-11 06:01:00,
2013-08-11 01:06:00,66.6,54.4,30.14,NW,323,0.0,0.0,65,0.00,,SKC,0.00,VWS V14.01,2013-08-11 06:06:00,
2013-08-11 01:11:00,66.6,54.4,30.14,NW,323,0.0,0.0,65,0.00,,SKC,0.00,VWS V14.01,2013-08-11 06:11:00,
2013-08-11 01:16:00,66.4,54.3,30.14,NW,323,0.0,0.0,65,0.00,,SKC,0.00,VWS V14.01,2013-08-11 06:16:00,
2013-08-11 01:21:00,66.2,54.1,30.14,NW,323,0.0,0.0,65,0.00,,SKC,0.00,VWS V14.01,2013-08-11 06:21:00,
2013-08-11 01:26:00,66.0,54.8,30.14,NW,323,0.0,0.0,67,0.00,,SKC,0.00,VWS V14.01,2013-08-11 06:26:00,
2013-08-11 01:31:00,65.8,55.0,30.14,NW,323,0.0,0.0,68,0.00,,SKC,0.00,VWS V14.01,2013-08-11 06:31:00,
2013-08-11 01:37:00,65.7,55.6,30.14,NW,323,0.0,0.0,70,0.00,,SKC,0.00,VWS V14.01,2013-08-11 06:37:00,
2013-08-11 01:42:00,65.5,55.5,30.14,NW,323,0.0,0.0,70,0.00,,SKC,0.00,VWS V14.01,2013-08-11 06:42:00,
2013-08-11 01:47:00,65.3,55.7,30.14,NW,323,0.0,0.0,71,0.00,,SKC,0.00,VWS V14.01,2013-08-11 06:47:00,
2013-08-11 01:53:00,65.1,56.3,30.14,NW,323,0.0,0.0,73,0.00,,SKC,0.00,VWS V14.01,2013-08-11 06:53:00,
2013-08-11 01:58:00,65.1,57.0,30.14,NW,323,0.0,0.0,75,0.00,,SKC,0.00,VWS V14.01,2013-08-11 06:58:00,
2013-08-11 02:05:00,65.3,57.2,30.14,NW,323,0.0,0.0,75,0.00,,SKC,0.00,VWS V14.01,2013-08-11 07:05:00,
2013-08-11 02:10:00,65.5,57.0,30.14,NW,323,0.0,0.0,74,0.00,,SKC,0.00,VWS V14.01,2013-08-11 07:10:00,
2013-08-11 02:15:00,65.7,56.4,30.14,NW,323,0.0,0.0,72,0.00,,SKC,0.00,VWS V14.01,2013-08-11 07:15:00,
2013-08-11 02:21:00,65.7,56.4,30.14,NW,323,0.0,0.0,72,0.00,,SKC,0.00,VWS V14.01,2013-08-11 07:21:00,
2013-08-11 02:26:00,65.8,56.6,30.14,NW,323,0.0,0.0,72,0.00,,SKC,0.00,VWS V14.01,2013-08-11 07:26:00,
2013-08-11 02:31:00,65.8,56.6,30.14,NW,323,0.0,0.0,72,0.00,,SKC,0.00,VWS V14.01,2013-08-11 07:31:00,
2013-08-11 02:36:00,65.8,56.2,30.14,NW,323,0.0,0.0,71,0.00,,SKC,0.00,VWS V14.01,2013-08-11 07:36:00,
2013-08-11 02:42:00,65.8,56.6,30.14,NW,323,0.0,0.0,72,0.00,,SKC,0.00,VWS V14.01,2013-08-11 07:42:00,
2013-08-11 02:47:00,65.8,56.2,30.14,NW,323,0.0,0.0,71,0.00,,SKC,0.00,VWS V14.01,2013-08-11 07:47:00,
2013-08-11 02:52:00,65.8,56.2,30.14,NW,323,0.0,0.0,71,0.00,,SKC,0.00,VWS V14.01,2013-08-11 07:52:00,
2013-08-11 02:57:00,65.8,56.2,30.14,NW,323,0.0,0.0,71,0.00,,SKC,0.00,VWS V14.01,2013-08-11 07:57:00,
2013-08-11 03:03:00,65.7,56.0,30.14,NW,323,0.0,0.0,71,0.00,,SKC,0.00,VWS V14.01,2013-08-11 08:03:00,
2013-08-11 03:09:00,65.8,56.2,30.11,NW,323,0.0,0.0,71,0.00,,SKC,0.00,VWS V14.01,2013-08-11 08:09:00,
2013-08-11 03:14:00,65.8,56.2,30.11,NW,323,0.0,0.0,71,0.00,,SKC,0.00,VWS V14.01,2013-08-11 08:14:00,
2013-08-11 03:19:00,65.8,55.8,30.11,NW,323,0.0,0.0,70,0.00,,SKC,0.00,VWS V14.01,2013-08-11 08:19:00,
2013-08-11 03:24:00,65.8,55.8,30.11,NW,323,0.0,0.0,70,0.00,,SKC,0.00,VWS V14.01,2013-08-11 08:24:00,
2013-08-11 03:29:00,65.8,56.2,30.11,NW,323,0.0,0.0,71,0.00,,SKC,0.00,VWS V14.01,2013-08-11 08:29:00,
2013-08-11 03:34:00,65.8,56.6,30.11,NW,323,0.0,0.0,72,0.00,,SKC,0.00,VWS V14.01,2013-08-11 08:34:00,
2013-08-11 03:40:00,65.7,56.4,30.11,NW,323,0.0,0.0,72,0.00,,SKC,0.00,VWS V14.01,2013-08-11 08:40:00,
2013-08-11 03:47:00,65.5,56.6,30.11,NW,323,0.0,0.0,73,0.00,,SKC,0.00,VWS V14.01,2013-08-11 08:47:00,
2013-08-11 03:52:00,65.3,56.4,30.11,NW,323,0.0,0.0,73,0.00,,SKC,0.00,VWS V14.01,2013-08-11 08:52:00,
2013-08-11 03:58:00,65.1,56.6,30.11,NW,323,0.0,0.0,74,0.00,,SKC,0.00,VWS V14.01,2013-08-11 08:58:00,
2013-08-11 04:04:00,64.9,56.8,30.11,NW,323,0.0,0.0,75,0.00,,SKC,0.00,VWS V14.01,2013-08-11 09:04:00,
2013-08-11 04:09:00,65.1,57.0,30.11,NW,323,0.0,0.0,75,0.00,,SKC,0.00,VWS V14.01,2013-08-11 09:09:00,
2013-08-11 04:14:00,64.9,57.9,30.11,NW,323,0.0,0.0,78,0.00,,SKC,0.00,VWS V14.01,2013-08-11 09:14:00,
2013-08-11 04:19:00,64.9,57.9,30.11,NW,323,0.0,0.0,78,0.00,,SKC,0.00,VWS V14.01,2013-08-11 09:19:00,
2013-08-11 04:24:00,64.9,57.9,30.11,NW,323,0.0,0.0,78,0.00,,SKC,0.00,VWS V14.01,2013-08-11 09:24:00,
2013-08-11 04:31:00,64.9,58.6,30.11,NW,323,0.0,0.0,80,0.00,,SKC,0.00,VWS V14.01,2013-08-11 09:31:00,
2013-08-11 04:36:00,64.8,58.5,30.11,NW,323,0.0,0.0,80,0.00,,SKC,0.00,VWS V14.01,2013-08-11 09:36:00,
2013-08-11 04:41:00,64.8,58.8,30.11,East,99,0.0,0.0,81,0.00,,SKC,0.00,VWS V14.01,2013-08-11 09:41:00,
2013-08-11 04:49:00,64.4,58.8,30.11,East,100,0.0,0.0,82,0.00,,SKC,0.00,VWS V14.01,2013-08-11 09:49:00,
2013-08-11 04:54:00,64.4,58.8,30.11,East,100,0.0,0.0,82,0.00,,SKC,0.00,VWS V14.01,2013-08-11 09:54:00,
2013-08-11 05:00:00,64.2,58.6,30.11,East,100,0.0,0.0,82,0.00,,SKC,0.00,VWS V14.01,2013-08-11 10:00:00,
2013-08-11 05:05:00,64.2,59.0,30.11,East,100,0.0,0.0,83,0.00,,SKC,0.00,VWS V14.01,2013-08-11 10:05:00,
2013-08-11 05:10:00,64.4,59.1,30.11,East,100,0.0,0.0,83,0.00,,SKC,0.00,VWS V14.01,2013-08-11 10:10:00,
2013-08-11 05:15:00,64.4,59.5,30.11,East,100,0.0,0.0,84,0.00,,SKC,0.00,VWS V14.01,2013-08-11 10:15:00,
2013-08-11 05:20:00,64.6,60.0,30.11,East,100,0.0,0.0,85,0.00,,SKC,0.00,VWS V14.01,2013-08-11 10:20:00,
2013-08-11 05:25:00,64.8,60.2,30.11,East,100,0.0,0.0,85,0.00,,SKC,0.00,VWS V14.01,2013-08-11 10:25:00,
2013-08-11 05:31:00,64.8,60.2,30.11,East,100,0.0,0.0,85,0.00,,SKC,0.00,VWS V14.01,2013-08-11 10:31:00,
2013-08-11 05:36:00,64.8,60.2,30.11,East,100,0.0,0.0,85,0.00,,SKC,0.00,VWS V14.01,2013-08-11 10:36:00,
2013-08-11 05:41:00,64.8,60.2,30.11,East,100,0.0,0.0,85,0.00,,SKC,0.00,VWS V14.01,2013-08-11 10:41:00,
2013-08-11 05:46:00,64.8,60.2,30.11,East,100,0.0,0.0,85,0.00,,SKC,0.00,VWS V14.01,2013-08-11 10:46:00,
2013-08-11 05:51:00,64.8,60.2,30.11,East,100,0.0,0.0,85,0.00,,SKC,0.00,VWS V14.01,2013-08-11 10:51:00,
2013-08-11 05:58:00,64.8,60.2,30.11,East,100,0.0,0.0,85,0.00,,SKC,0.00,VWS V14.01,2013-08-11 10:58:00,
2013-08-11 06:04:00,64.6,60.0,30.11,East,100,0.0,0.0,85,0.00,,SKC,0.00,VWS V14.01,2013-08-11 11:04:00,
2013-08-11 06:09:00,64.6,60.0,30.08,East,100,0.0,0.0,85,0.00,,SKC,0.00,VWS V14.01,2013-08-11 11:09:00,
2013-08-11 06:16:00,64.6,60.0,30.08,East,100,0.0,0.0,85,0.00,,SKC,0.00,VWS V14.01,2013-08-11 11:16:00,
2013-08-11 06:21:00,64.6,60.0,30.11,East,100,0.0,0.0,85,0.00,,SKC,0.00,VWS V14.01,2013-08-11 11:21:00,
2013-08-11 06:26:00,64.8,60.5,30.11,East,100,0.0,0.0,86,0.00,,SKC,0.00,VWS V14.01,2013-08-11 11:26:00,
2013-08-11 06:31:00,64.8,60.5,30.11,East,100,0.0,0.0,86,0.00,,SKC,0.00,VWS V14.01,2013-08-11 11:31:00,
2013-08-11 06:37:00,64.6,60.3,30.11,SSW,195,10.5,10.5,86,0.00,,SKC,0.00,VWS V14.01,2013-08-11 11:37:00,
2013-08-11 06:42:00,64.6,60.3,30.11,SSE,166,5.6,5.6,86,0.00,,SKC,0.00,VWS V14.01,2013-08-11 11:42:00,
2013-08-11 06:48:00,64.6,60.3,30.11,SW,222,0.0,4.0,86,0.00,,SKC,0.00,VWS V14.01,2013-08-11 11:48:00,
2013-08-11 06:54:00,64.6,60.3,30.08,SSW,199,6.4,6.4,86,0.00,,SKC,0.00,VWS V14.01,2013-08-11 11:54:00,
2013-08-11 06:59:00,64.6,60.3,30.08,WSW,248,4.0,4.0,86,0.00,,SKC,0.00,VWS V14.01,2013-08-11 11:59:00,
2013-08-11 07:05:00,64.8,60.5,30.08,WSW,248,4.0,4.0,86,0.00,,SKC,0.00,VWS V14.01,2013-08-11 12:05:00,
2013-08-11 07:11:00,64.8,60.5,30.08,WSW,248,4.0,4.0,86,0.00,,SKC,0.00,VWS V14.01,2013-08-11 12:11:00,
2013-08-11 07:16:00,64.8,60.5,30.08,WSW,248,4.0,4.0,86,0.00,,SKC,0.00,VWS V14.01,2013-08-11 12:16:00,
2013-08-11 07:22:00,64.8,60.5,30.08,WSW,248,4.0,4.0,86,0.00,,SKC,0.00,VWS V14.01,2013-08-11 12:22:00,
2013-08-11 07:27:00,64.8,60.5,30.08,WSW,257,0.0,0.0,86,0.00,,SKC,0.00,VWS V14.01,2013-08-11 12:27:00,
2013-08-11 07:32:00,64.9,60.7,30.08,WSW,257,0.0,0.0,86,0.00,,SKC,0.00,VWS V14.01,2013-08-11 12:32:00,
2013-08-11 07:37:00,65.1,60.8,30.08,WSW,257,0.0,0.0,86,0.00,,SKC,0.00,VWS V14.01,2013-08-11 12:37:00,
2013-08-11 07:43:00,65.3,61.0,30.08,WSW,257,0.0,0.0,86,0.00,,SKC,0.00,VWS V14.01,2013-08-11 12:43:00,
2013-08-11 07:48:00,65.5,60.9,30.08,WSW,257,0.0,0.0,85,0.00,,SKC,0.00,VWS V14.01,2013-08-11 12:48:00,
2013-08-11 07:53:00,65.5,60.9,30.11,WSW,257,0.0,0.0,85,0.00,,SKC,0.00,VWS V14.01,2013-08-11 12:53:00,
2013-08-11 07:58:00,65.7,60.4,30.11,WSW,257,0.0,0.0,83,0.00,,SKC,0.00,VWS V14.01,2013-08-11 12:58:00,
2013-08-11 08:03:00,65.7,60.4,30.11,WSW,257,0.0,0.0,83,0.00,,SKC,0.00,VWS V14.01,2013-08-11 13:03:00,
2013-08-11 08:08:00,65.7,60.4,30.11,WSW,257,0.0,0.0,83,0.00,,SKC,0.00,VWS V14.01,2013-08-11 13:08:00,
2013-08-11 08:14:00,65.7,60.4,30.11,WSW,257,0.0,0.0,83,0.00,,SKC,0.00,VWS V14.01,2013-08-11 13:14:00,
2013-08-11 08:20:00,65.8,60.2,30.11,WSW,257,0.0,0.0,82,0.00,,SKC,0.00,VWS V14.01,2013-08-11 13:20:00,
2013-08-11 08:25:00,66.0,60.4,30.11,WSW,257,0.0,0.0,82,0.00,,SKC,0.00,VWS V14.01,2013-08-11 13:25:00,
2013-08-11 08:30:00,66.2,60.2,30.11,WSW,257,0.0,0.0,81,0.00,,SKC,0.00,VWS V14.01,2013-08-11 13:30:00,
2013-08-11 08:35:00,66.4,60.4,30.11,WSW,257,0.0,0.0,81,0.00,,SKC,0.00,VWS V14.01,2013-08-11 13:35:00,
2013-08-11 08:41:00,66.6,59.8,30.11,WSW,257,0.0,0.0,79,0.00,,SKC,0.00,VWS V14.01,2013-08-11 13:41:00,
2013-08-11 08:46:00,66.7,59.7,30.11,WSW,257,0.0,0.0,78,0.00,,SKC,0.00,VWS V14.01,2013-08-11 13:46:00,
2013-08-11 08:51:00,66.9,59.5,30.11,WSW,257,0.0,0.0,77,0.00,,SKC,0.00,VWS V14.01,2013-08-11 13:51:00,
2013-08-11 08:56:00,66.7,59.3,30.11,WSW,257,0.0,0.0,77,0.00,,SKC,0.00,VWS V14.01,2013-08-11 13:56:00,
2013-08-11 09:01:00,66.6,59.1,30.11,WSW,257,0.0,0.0,77,0.00,,SKC,0.00,VWS V14.01,2013-08-11 14:01:00,
2013-08-11 09:06:00,66.0,59.0,30.11,WSW,257,0.0,0.0,78,0.00,,SKC,0.00,VWS V14.01,2013-08-11 14:06:00,
2013-08-11 09:12:00,66.0,59.7,30.11,WSW,257,0.0,0.0,80,0.00,,SKC,0.00,VWS V14.01,2013-08-11 14:12:00,
2013-08-11 09:17:00,65.7,59.7,30.11,WSW,257,0.0,0.0,81,0.00,,SKC,0.00,VWS V14.01,2013-08-11 14:17:00,
2013-08-11 09:22:00,65.5,59.8,30.14,WSW,257,0.0,0.0,82,0.00,,SKC,0.00,VWS V14.01,2013-08-11 14:22:00,
2013-08-11 09:27:00,65.1,59.8,30.14,WSW,257,0.0,0.0,83,0.04,,SKC,0.04,VWS V14.01,2013-08-11 14:27:00,
2013-08-11 09:32:00,65.1,60.2,30.14,WSW,257,0.0,0.0,84,0.04,,SKC,0.04,VWS V14.01,2013-08-11 14:32:00,
2013-08-11 09:37:00,65.1,60.5,30.14,WSW,257,0.0,0.0,85,0.04,,SKC,0.04,VWS V14.01,2013-08-11 14:37:00,
2013-08-11 09:42:00,64.8,60.5,30.14,WSW,257,0.0,0.0,86,0.04,,SKC,0.04,VWS V14.01,2013-08-11 14:42:00,
2013-08-11 09:47:00,64.8,60.5,30.14,WSW,257,0.0,0.0,86,0.04,,SKC,0.04,VWS V14.01,2013-08-11 14:47:00,
2013-08-11 09:53:00,64.6,60.6,30.14,WSW,257,0.0,0.0,87,0.08,,SKC,0.08,VWS V14.01,2013-08-11 14:53:00,
2013-08-11 09:59:00,64.6,61.0,30.14,WSW,257,0.0,0.0,88,0.08,,SKC,0.08,VWS V14.01,2013-08-11 14:59:00,
2013-08-11 10:04:00,64.8,61.1,30.14,WSW,257,0.0,0.0,88,0.08,,SKC,0.08,VWS V14.01,2013-08-11 15:04:00,
2013-08-11 10:10:00,64.8,61.5,30.14,WSW,257,0.0,0.0,89,0.08,,SKC,0.08,VWS V14.01,2013-08-11 15:10:00,
2013-08-11 10:15:00,64.6,61.3,30.14,WSW,257,0.0,0.0,89,0.08,,SKC,0.08,VWS V14.01,2013-08-11 15:15:00,
2013-08-11 10:21:00,64.8,61.5,30.14,WSW,257,0.0,0.0,89,0.08,,SKC,0.08,VWS V14.01,2013-08-11 15:21:00,
2013-08-11 10:27:00,64.8,61.5,30.14,WSW,257,0.0,0.0,89,0.04,,SKC,0.08,VWS V14.01,2013-08-11 15:27:00,
2013-08-11 10:32:00,64.6,61.6,30.14,WSW,257,0.0,0.0,90,0.04,,SKC,0.08,VWS V14.01,2013-08-11 15:32:00,
2013-08-11 10:40:00,64.6,61.6,30.14,WSW,257,0.0,0.0,90,0.04,,SKC,0.08,VWS V14.01,2013-08-11 15:40:00,
2013-08-11 10:45:00,64.6,61.6,30.14,WSW,257,0.0,0.0,90,0.04,,SKC,0.08,VWS V14.01,2013-08-11 15:45:00,
2013-08-11 10:50:00,64.8,61.8,30.14,WSW,257,0.0,0.0,90,0.04,,SKC,0.08,VWS V14.01,2013-08-11 15:50:00,
2013-08-11 10:55:00,64.9,62.2,30.14,WSW,257,0.0,0.0,91,0.00,,SKC,0.08,VWS V14.01,2013-08-11 15:55:00,
2013-08-11 11:00:00,65.1,62.4,30.14,WSW,257,0.0,0.0,91,0.00,,SKC,0.08,VWS V14.01,2013-08-11 16:00:00,
2013-08-11 11:07:00,65.7,63.0,30.11,WSW,257,0.0,0.0,91,0.00,,SKC,0.08,VWS V14.01,2013-08-11 16:07:00,
2013-08-11 11:12:00,65.8,63.1,30.11,WSW,257,0.0,0.0,91,0.00,,SKC,0.08,VWS V14.01,2013-08-11 16:12:00,
2013-08-11 11:17:00,66.4,63.7,30.11,WSW,257,0.0,0.0,91,0.00,,SKC,0.08,VWS V14.01,2013-08-11 16:17:00,
2013-08-11 11:22:00,66.9,64.2,30.11,WSW,257,0.0,0.0,91,0.00,,SKC,0.08,VWS V14.01,2013-08-11 16:22:00,
2013-08-11 11:27:00,67.1,64.4,30.11,WSW,257,0.0,0.0,91,0.00,,SKC,0.08,VWS V14.01,2013-08-11 16:27:00,
2013-08-11 11:32:00,67.8,65.1,30.11,WSW,257,0.0,0.0,91,0.00,,SKC,0.08,VWS V14.01,2013-08-11 16:32:00,
2013-08-11 11:37:00,68.4,65.3,30.11,WSW,257,0.0,0.0,90,0.00,,SKC,0.08,VWS V14.01,2013-08-11 16:37:00,
2013-08-11 11:42:00,68.2,65.1,30.11,WSW,257,0.0,0.0,90,0.00,,SKC,0.08,VWS V14.01,2013-08-11 16:42:00,
2013-08-11 11:47:00,68.4,65.0,30.11,WSW,257,0.0,0.0,89,0.00,,SKC,0.08,VWS V14.01,2013-08-11 16:47:00,
2013-08-11 11:52:00,68.5,65.2,30.11,WSW,257,0.0,0.0,89,0.00,,SKC,0.08,VWS V14.01,2013-08-11 16:52:00,
2013-08-11 11:57:00,68.9,65.5,30.11,WSW,257,0.0,0.0,89,0.00,,SKC,0.08,VWS V14.01,2013-08-11 16:57:00,
2013-08-11 12:02:00,69.3,63.2,30.11,WSW,257,0.0,0.0,81,0.00,,SKC,0.08,VWS V14.01,2013-08-11 17:02:00,
2013-08-11 12:07:00,70.7,64.6,30.11,WSW,257,0.0,0.0,81,0.00,,SKC,0.08,VWS V14.01,2013-08-11 17:07:00,
2013-08-11 12:12:00,71.8,62.7,30.11,WSW,257,0.0,0.0,73,0.00,,SKC,0.08,VWS V14.01,2013-08-11 17:12:00,
2013-08-11 12:17:00,72.1,58.9,30.11,WSW,257,0.0,0.0,63,0.00,,SKC,0.08,VWS V14.01,2013-08-11 17:17:00,
2013-08-11 12:23:00,73.2,59.9,30.11,WSW,257,0.0,0.0,63,0.00,,SKC,0.08,VWS V14.01,2013-08-11 17:23:00,
2013-08-11 12:29:00,74.7,56.9,30.11,WSW,257,0.0,0.0,54,0.00,,SKC,0.08,VWS V14.01,2013-08-11 17:29:00,
2013-08-11 12:35:00,74.7,55.9,30.11,WSW,257,0.0,0.0,52,0.00,,SKC,0.08,VWS V14.01,2013-08-11 17:35:00,
2013-08-11 12:41:00,73.8,55.6,30.11,WSW,257,0.0,0.0,53,0.00,,SKC,0.08,VWS V14.01,2013-08-11 17:41:00,
2013-08-11 12:47:00,72.7,55.6,30.11,WSW,257,0.0,0.0,55,0.00,,SKC,0.08,VWS V14.01,2013-08-11 17:47:00,
2013-08-11 12:52:00,72.3,56.2,30.11,WSW,257,0.0,0.0,57,0.00,,SKC,0.08,VWS V14.01,2013-08-11 17:52:00,
2013-08-11 12:57:00,72.0,57.3,30.11,WSW,257,0.0,0.0,60,0.00,,SKC,0.08,VWS V14.01,2013-08-11 17:57:00,
2013-08-11 13:03:00,72.0,57.3,30.11,WSW,257,0.0,0.0,60,0.00,,SKC,0.08,VWS V14.01,2013-08-11 18:03:00,
2013-08-11 13:08:00,71.4,56.8,30.11,WSW,257,0.0,0.0,60,0.00,,SKC,0.08,VWS V14.01,2013-08-11 18:08:00,
2013-08-11 13:13:00,71.2,56.7,30.11,WSW,257,0.0,0.0,60,0.00,,SKC,0.08,VWS V14.01,2013-08-11 18:13:00,
2013-08-11 13:19:00,70.9,57.2,30.11,WSW,257,0.0,0.0,62,0.00,,SKC,0.08,VWS V14.01,2013-08-11 18:19:00,
2013-08-11 13:27:00,70.5,58.2,30.11,WSW,257,0.0,0.0,65,0.00,,SKC,0.08,VWS V14.01,2013-08-11 18:27:00,
2013-08-11 13:32:00,70.5,58.2,30.11,WSW,257,0.0,0.0,65,0.00,,SKC,0.08,VWS V14.01,2013-08-11 18:32:00,
2013-08-11 13:38:00,70.0,57.7,30.11,WSW,257,0.0,0.0,65,0.00,,SKC,0.08,VWS V14.01,2013-08-11 18:38:00,
2013-08-11 13:44:00,69.4,58.0,30.11,WSW,257,0.0,0.0,67,0.00,,SKC,0.08,VWS V14.01,2013-08-11 18:44:00,
2013-08-11 13:49:00,69.4,58.4,30.11,WSW,257,0.0,0.0,68,0.00,,SKC,0.08,VWS V14.01,2013-08-11 18:49:00,
2013-08-11 13:54:00,69.6,59.0,30.11,WSW,257,0.0,0.0,69,0.00,,SKC,0.08,VWS V14.01,2013-08-11 18:54:00,
2013-08-11 13:59:00,69.8,58.8,30.11,WSW,257,0.0,0.0,68,0.00,,SKC,0.08,VWS V14.01,2013-08-11 18:59:00,
2013-08-11 14:04:00,70.0,58.5,30.11,WSW,257,0.0,0.0,67,0.00,,SKC,0.08,VWS V14.01,2013-08-11 19:04:00,
2013-08-11 14:10:00,70.2,59.1,30.11,WSW,257,0.0,0.0,68,0.00,,SKC,0.08,VWS V14.01,2013-08-11 19:10:00,
2013-08-11 14:15:00,70.0,59.0,30.11,WSW,257,0.0,0.0,68,0.00,,SKC,0.08,VWS V14.01,2013-08-11 19:15:00,
2013-08-11 14:20:00,69.4,58.4,30.11,WSW,257,0.0,0.0,68,0.00,,SKC,0.08,VWS V14.01,2013-08-11 19:20:00,
2013-08-11 14:25:00,69.3,58.3,30.11,WSW,257,0.0,0.0,68,0.00,,SKC,0.08,VWS V14.01,2013-08-11 19:25:00,
2013-08-11 14:30:00,69.1,58.1,30.11,WSW,257,0.0,0.0,68,0.00,,SKC,0.08,VWS V14.01,2013-08-11 19:30:00,
2013-08-11 14:35:00,68.9,58.7,30.11,WSW,257,0.0,0.0,70,0.00,,SKC,0.08,VWS V14.01,2013-08-11 19:35:00,
2013-08-11 14:40:00,68.5,59.9,30.11,West,267,0.0,0.0,74,0.08,,SKC,0.16,VWS V14.01,2013-08-11 19:40:00,
2013-08-11 14:46:00,67.3,59.5,30.11,West,267,0.0,0.0,76,0.16,,SKC,0.24,VWS V14.01,2013-08-11 19:46:00,
2013-08-11 14:51:00,66.7,58.9,30.11,West,267,0.0,0.0,76,0.20,,SKC,0.28,VWS V14.01,2013-08-11 19:51:00,
2013-08-11 14:56:00,66.4,59.3,30.11,West,267,0.0,0.0,78,0.20,,SKC,0.28,VWS V14.01,2013-08-11 19:56:00,
2013-08-11 15:01:00,66.2,59.5,30.11,West,267,0.0,0.0,79,0.20,,SKC,0.28,VWS V14.01,2013-08-11 20:01:00,
2013-08-11 15:07:00,66.7,60.4,30.11,West,267,0.0,0.0,80,0.20,,SKC,0.28,VWS V14.01,2013-08-11 20:07:00,
2013-08-11 15:13:00,66.9,60.6,30.11,West,267,0.0,0.0,80,0.20,,SKC,0.28,VWS V14.01,2013-08-11 20:13:00,
2013-08-11 15:21:00,67.1,61.4,30.11,West,267,0.0,0.0,82,0.24,,SKC,0.31,VWS V14.01,2013-08-11 20:21:00,
2013-08-11 15:26:00,67.1,62.5,30.11,West,267,0.0,0.0,85,0.24,,SKC,0.31,VWS V14.01,2013-08-11 20:26:00,
2013-08-11 15:31:00,66.9,62.3,30.11,West,267,0.0,0.0,85,0.24,,SKC,0.31,VWS V14.01,2013-08-11 20:31:00,
2013-08-11 15:36:00,67.1,63.1,30.11,West,267,0.0,0.0,87,0.28,,SKC,0.35,VWS V14.01,2013-08-11 20:36:00,
2013-08-11 15:41:00,67.1,63.1,30.11,West,267,0.0,0.0,87,0.20,,SKC,0.35,VWS V14.01,2013-08-11 20:41:00,
2013-08-11 15:46:00,67.1,63.4,30.11,West,267,0.0,0.0,88,0.12,,SKC,0.35,VWS V14.01,2013-08-11 20:46:00,
2013-08-11 15:51:00,67.1,63.4,30.11,West,267,0.0,0.0,88,0.08,,SKC,0.35,VWS V14.01,2013-08-11 20:51:00,
2013-08-11 15:56:00,66.9,63.3,30.11,West,267,0.0,0.0,88,0.08,,SKC,0.35,VWS V14.01,2013-08-11 20:56:00,
2013-08-11 16:02:00,66.7,63.4,30.11,West,267,0.0,0.0,89,0.08,,SKC,0.35,VWS V14.01,2013-08-11 21:02:00,
2013-08-11 16:07:00,66.9,63.6,30.08,West,267,0.0,0.0,89,0.08,,SKC,0.35,VWS V14.01,2013-08-11 21:07:00,
2013-08-11 16:13:00,66.9,63.6,30.08,West,267,0.0,0.0,89,0.08,,SKC,0.35,VWS V14.01,2013-08-11 21:13:00,
2013-08-11 16:18:00,66.9,63.9,30.08,West,267,0.0,0.0,90,0.04,,SKC,0.35,VWS V14.01,2013-08-11 21:18:00,
2013-08-11 16:23:00,67.1,64.1,30.08,West,267,0.0,0.0,90,0.04,,SKC,0.35,VWS V14.01,2013-08-11 21:23:00,
2013-08-11 16:28:00,66.9,63.9,30.08,West,267,0.0,0.0,90,0.04,,SKC,0.35,VWS V14.01,2013-08-11 21:28:00,
2013-08-11 16:33:00,67.1,64.1,30.08,West,267,0.0,0.0,90,0.04,,SKC,0.35,VWS V14.01,2013-08-11 21:33:00,
2013-08-11 16:38:00,67.1,64.1,30.08,West,267,0.0,0.0,90,0.00,,SKC,0.35,VWS V14.01,2013-08-11 21:38:00,
2013-08-11 16:43:00,67.3,64.2,30.08,West,267,0.0,0.0,90,0.00,,SKC,0.35,VWS V14.01,2013-08-11 21:43:00,
2013-08-11 16:48:00,67.3,64.2,30.08,West,267,0.0,0.0,90,0.00,,SKC,0.35,VWS V14.01,2013-08-11 21:48:00,
2013-08-11 16:53:00,67.3,64.2,30.08,West,267,0.0,0.0,90,0.04,,SKC,0.39,VWS V14.01,2013-08-11 21:53:00,
2013-08-11 16:58:00,67.1,63.8,30.08,West,267,0.0,0.0,89,0.04,,SKC,0.39,VWS V14.01,2013-08-11 21:58:00,
2013-08-11 17:03:00,66.9,63.6,30.08,West,267,0.0,0.0,89,0.04,,SKC,0.39,VWS V14.01,2013-08-11 22:03:00,
2013-08-11 17:08:00,66.9,63.6,30.08,West,267,0.0,0.0,89,0.04,,SKC,0.39,VWS V14.01,2013-08-11 22:08:00,
2013-08-11 17:14:00,66.9,63.9,30.08,West,267,0.0,0.0,90,0.04,,SKC,0.39,VWS V14.01,2013-08-11 22:14:00,
2013-08-11 17:19:00,66.9,63.9,30.08,West,267,0.0,0.0,90,0.04,,SKC,0.39,VWS V14.01,2013-08-11 22:19:00,
2013-08-11 17:24:00,66.9,63.9,30.08,West,267,0.0,0.0,90,0.04,,SKC,0.39,VWS V14.01,2013-08-11 22:24:00,
2013-08-11 17:29:00,66.7,63.7,30.08,West,267,0.0,0.0,90,0.04,,SKC,0.39,VWS V14.01,2013-08-11 22:29:00,
2013-08-11 17:35:00,66.7,63.7,30.08,West,267,0.0,0.0,90,0.04,,SKC,0.39,VWS V14.01,2013-08-11 22:35:00,
2013-08-11 17:40:00,66.7,63.4,30.08,West,267,0.0,0.0,89,0.04,,SKC,0.39,VWS V14.01,2013-08-11 22:40:00,
2013-08-11 17:45:00,66.6,63.5,30.08,West,267,0.0,0.0,90,0.04,,SKC,0.39,VWS V14.01,2013-08-11 22:45:00,
2013-08-11 17:51:00,66.4,63.0,30.08,West,267,0.0,0.0,89,0.04,,SKC,0.39,VWS V14.01,2013-08-11 22:51:00,
2013-08-11 17:56:00,66.0,62.7,30.08,NE,39,0.0,0.0,89,0.04,,SKC,0.43,VWS V14.01,2013-08-11 22:56:00,
2013-08-11 18:01:00,66.0,62.7,30.08,NE,39,0.0,0.0,89,0.04,,SKC,0.43,VWS V14.01,2013-08-11 23:01:00,
2013-08-11 18:07:00,65.8,62.8,30.08,NE,39,0.0,0.0,90,0.12,,SKC,0.51,VWS V14.01,2013-08-11 23:07:00,
2013-08-11 18:13:00,65.7,62.7,30.08,NE,39,0.0,0.0,90,0.12,,SKC,0.51,VWS V14.01,2013-08-11 23:13:00,
2013-08-11 18:19:00,65.7,63.0,30.08,NE,39,0.0,0.0,91,0.12,,SKC,0.51,VWS V14.01,2013-08-11 23:19:00,
2013-08-11 18:24:00,65.8,63.1,30.08,NE,39,0.0,0.0,91,0.12,,SKC,0.51,VWS V14.01,2013-08-11 23:24:00,
2013-08-11 18:29:00,65.8,63.1,30.08,NE,39,0.0,0.0,91,0.12,,SKC,0.51,VWS V14.01,2013-08-11 23:29:00,
2013-08-11 18:34:00,65.8,63.1,30.08,NE,39,0.0,0.0,91,0.12,,SKC,0.51,VWS V14.01,2013-08-11 23:34:00,
2013-08-11 18:39:00,66.0,63.6,30.08,NE,39,0.0,0.0,92,0.12,,SKC,0.51,VWS V14.01,2013-08-11 23:39:00,
2013-08-11 18:44:00,65.8,63.5,30.08,NE,39,0.0,0.0,92,0.12,,SKC,0.51,VWS V14.01,2013-08-11 23:44:00,
2013-08-11 18:49:00,65.7,63.3,30.08,NE,39,0.0,0.0,92,0.12,,SKC,0.51,VWS V14.01,2013-08-11 23:49:00,
2013-08-11 18:54:00,65.7,63.3,30.05,NE,39,0.0,0.0,92,0.08,,SKC,0.51,VWS V14.01,2013-08-11 23:54:00,
2013-08-11 18:59:00,65.8,63.5,30.05,NE,39,0.0,0.0,92,0.08,,SKC,0.51,VWS V14.01,2013-08-11 23:59:00,
2013-08-11 19:04:00,66.0,63.6,30.05,NE,39,0.0,0.0,92,0.00,,SKC,0.51,VWS V14.01,2013-08-12 00:04:00,
2013-08-11 19:09:00,65.8,63.5,30.05,NE,39,0.0,0.0,92,0.00,,SKC,0.51,VWS V14.01,2013-08-12 00:09:00,
2013-08-11 19:14:00,65.8,63.5,30.05,NE,39,0.0,0.0,92,0.00,,SKC,0.51,VWS V14.01,2013-08-12 00:14:00,
2013-08-11 19:19:00,65.8,63.5,30.05,NE,39,0.0,0.0,92,0.00,,SKC,0.51,VWS V14.01,2013-08-12 00:19:00,
2013-08-11 19:25:00,65.8,63.5,30.05,NE,39,0.0,0.0,92,0.00,,SKC,0.51,VWS V14.01,2013-08-12 00:25:00,
2013-08-11 19:30:00,65.8,63.5,30.05,NE,39,0.0,0.0,92,0.00,,SKC,0.51,VWS V14.01,2013-08-12 00:30:00,
2013-08-11 19:35:00,65.8,63.5,30.05,NE,39,0.0,0.0,92,0.00,,SKC,0.51,VWS V14.01,2013-08-12 00:35:00,
2013-08-11 19:40:00,66.0,63.6,30.05,NE,39,0.0,0.0,92,0.00,,SKC,0.51,VWS V14.01,2013-08-12 00:40:00,
2013-08-11 19:46:00,66.2,63.8,30.05,NE,39,0.0,0.0,92,0.00,,SKC,0.51,VWS V14.01,2013-08-12 00:46:00,
2013-08-11 19:51:00,66.2,63.8,30.05,NE,39,0.0,0.0,92,0.00,,SKC,0.51,VWS V14.01,2013-08-12 00:51:00,
2013-08-11 19:59:00,66.2,63.8,30.05,NE,39,0.0,0.0,92,0.00,,SKC,0.51,VWS V14.01,2013-08-12 00:59:00,
2013-08-11 20:04:00,66.2,63.8,30.05,NE,39,0.0,0.0,92,0.00,,SKC,0.51,VWS V14.01,2013-08-12 01:04:00,
2013-08-11 20:10:00,66.2,63.8,30.05,NE,39,0.0,0.0,92,0.00,,SKC,0.51,VWS V14.01,2013-08-12 01:10:00,
2013-08-11 20:15:00,66.2,63.8,30.05,NE,39,0.0,0.0,92,0.00,,SKC,0.51,VWS V14.01,2013-08-12 01:15:00,
2013-08-11 20:20:00,66.2,63.8,30.05,NE,39,0.0,0.0,92,0.00,,SKC,0.51,VWS V14.01,2013-08-12 01:20:00,
2013-08-11 20:25:00,66.2,63.8,30.05,NE,39,0.0,0.0,92,0.00,,SKC,0.51,VWS V14.01,2013-08-12 01:25:00,
2013-08-11 20:30:00,66.2,63.8,30.05,NE,39,0.0,0.0,92,0.00,,SKC,0.51,VWS V14.01,2013-08-12 01:30:00,
2013-08-11 20:35:00,66.2,63.8,30.05,NE,39,0.0,0.0,92,0.00,,SKC,0.51,VWS V14.01,2013-08-12 01:35:00,
2013-08-11 20:40:00,66.2,63.8,30.05,NE,39,0.0,0.0,92,0.00,,SKC,0.51,VWS V14.01,2013-08-12 01:40:00,
2013-08-11 20:46:00,66.2,63.8,30.05,NE,39,0.0,0.0,92,0.00,,SKC,0.51,VWS V14.01,2013-08-12 01:46:00,
2013-08-11 20:51:00,66.2,63.8,30.05,NE,39,0.0,0.0,92,0.00,,SKC,0.51,VWS V14.01,2013-08-12 01:51:00,
2013-08-11 20:56:00,66.4,64.0,30.05,NE,39,0.0,0.0,92,0.00,,SKC,0.51,VWS V14.01,2013-08-12 01:56:00,
2013-08-11 21:01:00,66.2,63.8,30.05,NE,39,0.0,0.0,92,0.00,,SKC,0.51,VWS V14.01,2013-08-12 02:01:00,
2013-08-11 21:07:00,66.2,63.8,30.05,NE,39,0.0,0.0,92,0.00,,SKC,0.51,VWS V14.01,2013-08-12 02:07:00,
2013-08-11 21:12:00,66.2,63.8,30.05,NE,39,0.0,0.0,92,0.00,,SKC,0.51,VWS V14.01,2013-08-12 02:12:00,
2013-08-11 21:19:00,66.2,63.8,30.05,NE,39,0.0,0.0,92,0.00,,SKC,0.51,VWS V14.01,2013-08-12 02:19:00,
2013-08-11 21:25:00,66.2,63.8,30.08,NE,39,0.0,0.0,92,0.00,,SKC,0.51,VWS V14.01,2013-08-12 02:25:00,
2013-08-11 21:30:00,66.2,63.8,30.08,NE,39,0.0,0.0,92,0.00,,SKC,0.51,VWS V14.01,2013-08-12 02:30:00,
2013-08-11 21:35:00,66.0,63.6,30.08,NE,39,0.0,0.0,92,0.00,,SKC,0.51,VWS V14.01,2013-08-12 02:35:00,
2013-08-11 21:41:00,66.2,63.8,30.05,NE,39,0.0,0.0,92,0.00,,SKC,0.51,VWS V14.01,2013-08-12 02:41:00,
2013-08-11 21:46:00,66.2,63.8,30.05,NE,39,0.0,0.0,92,0.00,,SKC,0.51,VWS V14.01,2013-08-12 02:46:00,
2013-08-11 21:51:00,66.2,63.8,30.05,NE,39,0.0,0.0,92,0.00,,SKC,0.51,VWS V14.01,2013-08-12 02:51:00,
2013-08-11 21:56:00,66.4,64.0,30.05,NE,39,0.0,0.0,92,0.00,,SKC,0.51,VWS V14.01,2013-08-12 02:56:00,
2013-08-11 22:01:00,66.2,63.8,30.05,NE,39,0.0,0.0,92,0.00,,SKC,0.51,VWS V14.01,2013-08-12 03:01:00,
2013-08-11 22:06:00,66.0,63.6,30.05,NE,39,0.0,0.0,92,0.00,,SKC,0.51,VWS V14.01,2013-08-12 03:06:00,
2013-08-11 22:11:00,66.2,63.8,30.05,NE,39,0.0,0.0,92,0.00,,SKC,0.51,VWS V14.01,2013-08-12 03:11:00,
2013-08-11 22:17:00,66.0,63.6,30.05,NE,39,0.0,0.0,92,0.00,,SKC,0.51,VWS V14.01,2013-08-12 03:17:00,
2013-08-11 22:23:00,66.0,63.6,30.05,NE,39,0.0,0.0,92,0.00,,SKC,0.51,VWS V14.01,2013-08-12 03:23:00,
2013-08-11 22:29:00,66.0,63.9,30.05,NE,39,0.0,0.0,93,0.00,,SKC,0.51,VWS V14.01,2013-08-12 03:29:00,
2013-08-11 22:35:00,65.8,63.5,30.05,NE,39,0.0,0.0,92,0.00,,SKC,0.51,VWS V14.01,2013-08-12 03:35:00,
2013-08-11 22:40:00,66.0,63.9,30.08,NE,39,0.0,0.0,93,0.00,,SKC,0.51,VWS V14.01,2013-08-12 03:40:00,
2013-08-11 22:47:00,66.0,63.9,30.08,NE,39,0.0,0.0,93,0.00,,SKC,0.51,VWS V14.01,2013-08-12 03:47:00,
2013-08-11 22:53:00,66.0,63.9,30.08,NE,39,0.0,0.0,93,0.00,,SKC,0.51,VWS V14.01,2013-08-12 03:53:00,
2013-08-11 22:58:00,66.0,63.9,30.08,NE,39,0.0,0.0,93,0.00,,SKC,0.51,VWS V14.01,2013-08-12 03:58:00,
2013-08-11 23:03:00,66.0,63.9,30.08,NE,39,0.0,0.0,93,0.00,,SKC,0.51,VWS V14.01,2013-08-12 04:03:00,
2013-08-11 23:04:00,66.0,63.9,30.08,NE,39,0.0,0.0,93,0.00,,SKC,0.51,VWS V14.01,2013-08-12 04:04:00,
2013-08-11 23:05:00,66.0,63.9,30.08,NE,39,0.0,0.0,93,0.00,,SKC,0.51,VWS V14.01,2013-08-12 04:05:00,
2013-08-11 23:07:00,66.0,63.9,30.08,NE,39,0.0,0.0,93,0.00,,SKC,0.51,VWS V14.01,2013-08-12 04:07:00,
2013-08-11 23:11:00,66.0,63.9,30.08,NE,39,0.0,0.0,93,0.00,,SKC,0.51,VWS V14.01,2013-08-12 04:11:00,
2013-08-11 23:16:00,65.8,63.8,30.08,NE,39,0.0,0.0,93,0.00,,SKC,0.51,VWS V14.01,2013-08-12 04:16:00,
2013-08-11 23:21:00,65.8,63.8,30.08,NE,39,0.0,0.0,93,0.00,,SKC,0.51,VWS V14.01,2013-08-12 04:21:00,
2013-08-11 23:27:00,65.8,63.8,30.08,NE,39,0.0,0.0,93,0.00,,SKC,0.51,VWS V14.01,2013-08-12 04:27:00,
2013-08-11 23:33:00,65.7,63.3,30.08,NE,39,0.0,0.0,92,0.00,,SKC,0.51,VWS V14.01,2013-08-12 04:33:00,
2013-08-11 23:38:00,65.5,63.1,30.05,NE,39,0.0,0.0,92,0.00,,SKC,0.51,VWS V14.01,2013-08-12 04:38:00,
2013-08-11 23:43:00,65.1,62.7,30.05,NE,39,0.0,0.0,92,0.00,,SKC,0.51,VWS V14.01,2013-08-12 04:43:00,
2013-08-11 23:48:00,65.1,62.7,30.05,NE,39,0.0,0.0,92,0.00,,SKC,0.51,VWS V14.01,2013-08-12 04:48:00,
2013-08-11 23:53:00,64.8,62.4,30.05,NE,39,0.0,0.0,92,0.00,,SKC,0.51,VWS V14.01,2013-08-12 04:53:00,
2013-08-11 23:58:00,64.9,62.6,30.05,NE,39,0.0,0.0,92,0.00,,SKC,0.51,VWS V14.01,2013-08-12 04:58:00,